Location: Peebles
(55.6412°N, 3.1714°W)
Time: 11:18:23
(UTC+01:00)

deb NNS O-4 - Pass Details

Date: 29 June 2022
Orbit: 977 x 1074 km, 89.9° (Epoch: 15 August)

Event Time Altitude Azimuth Distance (km) Brightness Sun altitude
Exits shadow 02:52:59 - 177° (S) 3,201 ? -8.5°
Reaches altitude 10° 02:53:46 10° 177° (S) 2,906 ? -8.4°
Maximum altitude 03:00:29 89° 267° (W) 1,080 ? -8.1°
Drops below altitude 10° 03:07:10 10° 359° (N) 2,897 ? -7.7°
Sets 03:09:43 0° 360° (N) 3,845 ? -7.5°
